Location: Cudham
(51.3000°N, 0.0667°E)
Time: 22:44:36
(UTC+00:00)

Cosmos 1975 - Pass Details

Date: 15 May 2026
Orbit: 471 x 485 km, 82.5° (Epoch: 6 June)

Event Time Altitude Azimuth Distance (km) Brightness Sun altitude
Rises 23:26:42 0° 344° (NNW) 2,575 7.8 -19.4°
Reaches altitude 10° 23:28:52 10° 339° (NNW) 1,688 6.4 -19.4°
Maximum altitude 23:32:25 46° 265° (W) 663 3.2 -19.5°
Enters shadow 23:32:58 42° 236° (WSW) 706 3.1 -19.5°
